KD5JEO Weather Reports


Display with metric or nautical units.
time (UTC)temp
F
wind
direction
speed
MPH
gust
MPH
rain 1hr
in
rain 24hr
in
rain mn
in
humidity
%
barometer
mb
20260906154032 70 108 5.0 14.0 0.00 0.00 0.00 88 1018.8
20260906153529 70 136 7.0 14.0 0.00 0.00 0.00 89 1018.8
20260906153108 70 123 6.0 12.0 0.00 0.00 0.00 89 1018.8
20260906152533 70 105 5.0 10.0 0.00 0.00 0.00 90 1019.1
20260906152029 70 138 4.0 11.0 0.00 0.00 0.00 90 1019.2
20260906151550 70 111 4.0 11.0 0.00 0.00 0.00 91 1019.1
20260906151029 70 112 5.0 10.0 0.00 0.00 0.00 91 1019.1
20260906150529 69 101 2.0 10.0 0.00 0.00 0.00 91 1019.2
20260906150101 69 109 5.0 10.0 0.00 0.00 0.00 91 1019.1
20260906145530 69 126 3.0 8.0 0.00 0.00 0.00 92 1018.9
20260906145029 69 127 5.0 8.0 0.00 0.00 0.00 92 1019.0
20260906144551 69 123 3.0 9.0 0.00 0.00 0.00 92 1018.9
20260906144029 69 145 4.0 9.0 0.00 0.00 0.00 93 1018.9
20260906143530 69 142 3.0 10.0 0.00 0.00 0.00 93 1018.8
20260906143049 68 129 4.0 10.0 0.00 0.00 0.00 93 1018.9
20260906142532 68 119 5.0 10.0 0.00 0.00 0.00 93 1018.9
20260906142032 68 130 4.0 10.0 0.00 0.00 0.00 93 1019.1
20260906141600 68 132 4.0 10.0 0.00 0.00 0.00 94 1019.2
20260906141032 68 131 3.0 12.0 0.00 0.00 0.00 94 1019.1
20260906140529 68 146 6.0 12.0 0.00 0.00 0.00 94 1019.0
20260906140053 68 124 4.0 12.0 0.00 0.00 0.00 94 1018.9
20260906135531 68 150 4.0 12.0 0.00 0.00 0.00 94 1018.8
20260906135030 67 119 6.0 14.0 0.00 0.00 0.00 94 1018.8
20260906134550 67 142 7.0 14.0 0.00 0.00 0.00 94 1018.7
20260906134031 67 121 7.0 13.0 0.00 0.00 0.00 94 1018.7
20260906133531 67 126 6.0 12.0 0.00 0.00 0.00 94 1018.7
20260906133057 67 117 5.0 11.0 0.00 0.00 0.00 94 1018.6
20260906132531 67 118 6.0 11.0 0.00 0.00 0.00 94 1018.5
20260906132030 67 107 5.0 11.0 0.00 0.00 0.00 94 1018.4
20260906131600 67 134 6.0 11.0 0.00 0.00 0.00 94 1018.3
20260906131031 67 105 6.0 9.0 0.00 0.00 0.00 94 1018.4
20260906130530 67 121 4.0 10.0 0.00 0.00 0.00 95 1018.3
20260906130054 67 101 5.0 10.0 0.00 0.00 0.00 95 1018.1
20260906125530 67 82 4.0 10.0 0.00 0.00 0.00 95 1018.3
20260906125029 67 107 4.0 9.0 0.00 0.00 0.00 95 1018.2
20260906124550 67 113 5.0 9.0 0.00 0.00 0.00 95 1018.2
20260906124031 67 122 5.0 9.0 0.00 0.00 0.00 95 1018.1
20260906123530 67 111 4.0 8.0 0.00 0.00 0.00 95 1018.2
20260906123055 66 99 3.0 7.0 0.00 0.00 0.00 95 1018.2
20260906122532 66 91 2.0 4.0 0.00 0.00 0.00 95 1018.2
20260906122031 66 119 2.0 4.0 0.00 0.00 0.00 95 1018.2
20260906121545 66 120 2.0 4.0 0.00 0.00 0.00 95 1018.1
20260906121031 65 123 1.0 3.0 0.00 0.00 0.00 95 1018.0
20260906120533 65 123 1.0 3.0 0.00 0.00 0.00 95 1018.1
20260906120056 65 156 1.0 3.0 0.00 0.00 0.00 95 1018.0
20260906115530 65 120 1.0 3.0 0.00 0.00 0.00 94 1018.1
20260906115029 65 120 1.0 3.0 0.00 0.00 0.00 94 1017.9
20260906114553 65 120 1.0 4.0 0.00 0.00 0.00 94 1017.8
20260906114032 65 127 2.0 4.0 0.00 0.00 0.00 94 1017.8
20260906113532 65 114 2.0 4.0 0.00 0.00 0.00 94 1017.8
20260906113059 65 110 2.0 4.0 0.00 0.00 0.00 94 1017.8
20260906112535 65 109 2.0 4.0 0.00 0.00 0.00 94 1017.8
20260906112034 65 126 1.0 4.0 0.00 0.00 0.00 94 1017.8
20260906111556 65 128 2.0 4.0 0.00 0.00 0.00 94 1017.7
20260906111032 65 111 2.0 4.0 0.00 0.00 0.00 94 1017.8
20260906110532 66 128 1.0 3.0 0.00 0.00 0.00 94 1017.7
20260906110049 66 128 1.0 3.0 0.00 0.00 0.00 94 1017.6
20260906105532 66 121 1.0 4.0 0.00 0.00 0.00 94 1017.6
20260906105033 66 128 2.0 4.0 0.00 0.00 0.00 94 1017.7
20260906104549 66 107 2.0 4.0 0.00 0.00 0.00 94 1017.7
20260906104033 66 101 1.0 3.0 0.00 0.00 0.00 94 1017.5
20260906103531 66 117 1.0 3.0 0.00 0.00 0.00 94 1017.6
20260906103052 66 117 1.0 3.0 0.00 0.00 0.00 93 1017.5
20260906102534 66 117 1.0 3.0 0.00 0.00 0.00 93 1017.5
20260906102032 66 117 1.0 3.0 0.00 0.00 0.00 93 1017.5
20260906101549 66 117 1.0 3.0 0.00 0.00 0.00 93 1017.4
20260906101031 67 117 1.0 4.0 0.00 0.00 0.00 93 1017.5
20260906100533 67 113 2.0 4.0 0.00 0.00 0.00 93 1017.3
20260906100048 67 99 2.0 4.0 0.00 0.00 0.00 93 1017.3
20260906095533 67 105 1.0 5.0 0.00 0.00 0.00 93 1017.2
20260906095033 67 155 2.0 5.0 0.00 0.00 0.00 93 1017.2
20260906094604 67 113 2.0 6.0 0.00 0.00 0.00 92 1017.0
20260906094032 67 132 2.0 6.0 0.00 0.00 0.00 92 1016.9
20260906093533 67 101 2.0 7.0 0.00 0.00 0.00 92 1016.7
20260906093053 67 95 2.0 7.0 0.00 0.00 0.00 92 1016.7
20260906092535 67 109 2.0 6.0 0.00 0.00 0.00 92 1016.7
20260906092032 68 95 3.0 6.0 0.00 0.00 0.00 92 1016.8
20260906091551 68 82 2.0 4.0 0.00 0.00 0.00 92 1016.6
20260906091033 68 103 2.0 4.0 0.00 0.00 0.00 92 1016.8
20260906090533 68 112 1.0 6.0 0.00 0.00 0.00 92 1016.9
20260906090054 68 86 1.0 7.0 0.00 0.00 0.00 92 1016.9
20260906085535 68 121 3.0 8.0 0.00 0.00 0.00 92 1016.7
20260906085030 68 100 2.0 8.0 0.00 0.00 0.00 92 1016.6
20260906084547 68 113 2.0 8.0 0.00 0.00 0.00 92 1016.6
20260906084035 68 115 4.0 8.0 0.00 0.00 0.00 92 1016.6
20260906083529 68 101 3.0 7.0 0.00 0.00 0.00 91 1016.7
20260906083052 68 101 3.0 7.0 0.00 0.00 0.00 92 1016.6
20260906082529 68 109 3.0 8.0 0.00 0.00 0.00 92 1016.5
20260906082030 68 126 3.0 8.0 0.00 0.00 0.00 91 1016.6
20260906081550 69 105 2.0 7.0 0.00 0.00 0.00 91 1016.5
20260906081030 69 97 3.0 7.0 0.00 0.00 0.00 91 1016.5
20260906080530 69 113 2.0 6.0 0.00 0.00 0.00 91 1016.5
20260906080052 69 91 2.0 6.0 0.00 0.00 0.00 91 1016.5
20260906075530 69 96 2.0 8.0 0.00 0.00 0.00 91 1016.6
20260906075029 69 113 3.0 8.0 0.00 0.00 0.00 91 1016.6
20260906074548 69 113 4.0 7.0 0.00 0.00 0.00 91 1016.7
20260906074031 69 100 2.0 7.0 0.00 0.00 0.00 91 1016.7
20260906073531 69 109 3.0 7.0 0.00 0.00 0.00 91 1016.7
20260906073043 69 90 2.0 3.0 0.00 0.00 0.00 91 1016.8
20260906072533 69 98 1.0 3.0 0.00 0.00 0.00 91 1016.9
20260906072030 69 0 0.0 4.0 0.00 0.00 0.00 91 1017.0
20260906071552 69 102 2.0 4.0 0.00 0.00 0.00 91 1017.0
20260906071031 69 90 1.0 4.0 0.00 0.00 0.00 91 1017.0
20260906070533 70 90 0.0 3.0 0.00 0.00 0.00 90 1016.9
20260906070047 70 76 1.0 4.0 0.00 0.00 0.00 90 1017.0
20260906065531 70 92 2.0 4.0 0.00 0.00 0.00 90 1016.9
20260906065031 70 110 2.0 6.0 0.00 0.00 0.00 90 1017.0
20260906064552 70 110 2.0 6.0 0.00 0.00 0.00 90 1017.0
20260906064031 70 58 2.0 4.0 0.00 0.00 0.00 90 1017.1
20260906063529 70 103 2.0 6.0 0.00 0.00 0.00 90 1016.9
20260906063051 70 95 2.0 6.0 0.00 0.00 0.00 90 1017.1
20260906062534 70 115 3.0 6.0 0.00 0.00 0.00 90 1017.1
20260906062031 70 128 2.0 6.0 0.00 0.00 0.00 90 1017.1
20260906061550 70 122 2.0 6.0 0.00 0.00 0.00 89 1017.1
20260906061031 70 120 2.0 4.0 0.00 0.00 0.00 89 1017.0
20260906060531 70 125 1.0 4.0 0.00 0.00 0.00 89 1017.1
20260906060059 71 133 2.0 5.0 0.00 0.00 0.00 89 1017.1
20260906055528 71 136 2.0 5.0 0.00 0.00 0.00 89 1017.1
20260906055031 71 113 2.0 6.0 0.00 0.00 0.00 89 1017.0
20260906054606 71 128 1.0 6.0 0.00 0.00 0.00 89 1017.0
20260906054031 71 148 2.0 4.0 0.00 0.00 0.00 88 1016.9
20260906053532 71 107 2.0 7.0 0.00 0.00 0.00 88 1017.1
20260906053048 71 113 3.0 7.0 0.00 0.00 0.00 88 1017.1
20260906052528 71 108 3.0 7.0 0.00 0.00 0.00 88 1017.1
20260906052032 71 94 4.0 7.0 0.00 0.00 0.00 88 1017.1
20260906051543 71 92 2.0 6.0 0.00 0.00 0.00 88 1017.2
20260906051031 71 98 2.0 7.0 0.00 0.00 0.00 88 1017.1
20260906050532 71 111 3.0 7.0 0.00 0.00 0.00 88 1017.2
20260906050053 71 109 2.0 4.0 0.00 0.00 0.00 88 1017.2
20260906045529 71 105 1.0 4.0 0.00 0.00 0.00 88 1017.2
20260906045031 71 114 1.0 4.0 0.00 0.00 0.00 88 1017.2
20260906044548 71 90 2.0 4.0 0.00 0.00 0.00 87 1017.3
20260906044031 71 98 1.0 4.0 0.00 0.00 0.00 87 1017.3
20260906043532 72 96 1.0 3.0 0.00 0.00 0.00 87 1017.4
20260906043044 72 88 1.0 6.0 0.00 0.00 0.00 87 1017.4
20260906042528 72 103 1.0 6.0 0.00 0.00 0.00 87 1017.4
20260906042029 72 103 2.0 6.0 0.00 0.00 0.00 87 1017.3
20260906041550 72 90 1.0 7.0 0.00 0.00 0.00 87 1017.3
20260906041029 72 56 1.0 7.0 0.00 0.00 0.00 88 1017.3
20260906040535 72 82 1.0 4.0 0.00 0.00 0.00 89 1017.4
20260906040051 71 76 1.0 3.0 0.00 0.00 0.00 89 1017.4
20260906035529 71 63 1.0 3.0 0.00 0.00 0.00 89 1017.4
20260906035030 71 78 1.0 3.0 0.00 0.00 0.00 89 1017.4
20260906034559 71 90 0.0 2.0 0.00 0.00 0.00 89 1017.5
20260906034031 71 90 0.0 3.0 0.00 0.00 0.00 89 1017.4
20260906033532 71 0 0.0 3.0 0.00 0.00 0.00 89 1017.3
20260906033057 71 0 0.0 0.0 0.00 0.00 0.00 90 1017.4
20260906032529 71 0 0.0 0.0 0.00 0.00 0.00 89 1017.3
20260906032029 71 0 0.0 0.0 0.00 0.00 0.00 89 1017.2
20260906031551 71 0 0.0 0.0 0.00 0.00 0.00 89 1017.3
20260906031030 71 0 0.0 0.0 0.00 0.00 0.00 89 1017.4
20260906030530 71 0 0.0 0.0 0.00 0.00 0.00 89 1017.4
20260906030052 71 0 0.0 0.0 0.00 0.00 0.00 89 1017.5
20260906025529 71 0 0.0 2.0 0.00 0.00 0.00 88 1017.5
20260906025029 71 0 0.0 2.0 0.00 0.00 0.00 89 1017.5
20260906024552 71 163 0.0 2.0 0.00 0.00 0.00 89 1017.6
20260906024029 71 0 0.0 0.0 0.00 0.00 0.00 89 1017.5
20260906023529 71 0 0.0 0.0 0.00 0.00 0.00 89 1017.4
20260906023050 71 0 0.0 1.0 0.00 0.00 0.00 89 1017.2
20260906022529 71 0 0.0 1.0 0.00 0.00 0.00 89 1017.2
20260906022031 71 0 0.0 0.0 0.00 0.00 0.00 88 1017.1
20260906021557 71 0 0.0 1.0 0.00 0.00 0.00 88 1017.0
20260906021029 71 0 0.0 2.0 0.00 0.00 0.00 87 1017.0
20260906020530 71 0 0.0 2.0 0.00 0.00 0.00 87 1016.8
20260906020046 72 0 0.0 2.0 0.00 0.00 0.00 86 1016.6
20260906015529 72 163 0.0 2.0 0.00 0.00 0.00 85 1016.3
20260906015029 72 163 0.0 3.0 0.00 0.00 0.00 85 1016.3
20260906014553 72 163 0.0 3.0 0.00 0.00 0.00 85 1016.1
20260906014033 73 133 1.0 5.0 0.00 0.00 0.00 84 1015.9
20260906013529 73 121 0.0 5.0 0.00 0.00 0.00 83 1015.8
20260906013050 74 137 1.0 5.0 0.00 0.00 0.00 82 1015.7
20260906012530 74 134 1.0 5.0 0.00 0.00 0.00 82 1015.7
20260906012031 74 139 2.0 7.0 0.00 0.00 0.00 82 1015.6
20260906011549 74 113 3.0 7.0 0.00 0.00 0.00 81 1015.6
20260906011030 74 144 4.0 8.0 0.00 0.00 0.00 81 1015.6
20260906010531 75 117 3.0 8.0 0.00 0.00 0.00 80 1015.6
20260906010106 75 124 3.0 8.0 0.00 0.00 0.00 80 1015.5
20260906005529 75 109 4.0 11.0 0.00 0.00 0.00 80 1015.5
20260906005031 75 107 5.0 11.0 0.00 0.00 0.00 80 1015.5
20260906004609 76 85 3.0 9.0 0.00 0.00 0.00 79 1015.5
20260906004029 76 115 5.0 9.0 0.00 0.00 0.00 79 1015.5
20260906003531 76 113 5.0 9.0 0.00 0.00 0.00 79 1015.6
20260906003053 76 124 6.0 9.0 0.00 0.00 0.00 79 1015.5
20260906002532 77 138 3.0 11.0 0.00 0.00 0.00 78 1015.4
20260906002030 77 115 6.0 11.0 0.00 0.00 0.00 78 1015.3
20260906001601 77 167 6.0 11.0 0.00 0.00 0.00 78 1015.2
20260906001031 77 120 7.0 11.0 0.00 0.00 0.00 77 1015.1
20260906000532 78 111 6.0 11.0 0.00 0.00 0.00 77 1015.0
20260906000046 78 158 5.0 13.0 0.00 0.00 0.00 76 1015.1
20260905235529 78 109 7.0 13.0 0.00 0.00 0.00 75 1015.1
20260905235031 79 146 5.0 15.0 0.00 0.00 0.00 75 1015.2
20260905234554 79 162 7.0 15.0 0.00 0.00 0.00 74 1015.2
20260905234030 79 118 7.0 12.0 0.00 0.00 0.00 74 1015.3
20260905233532 80 127 3.0 13.0 0.00 0.00 0.00 73 1015.2
20260905233051 80 119 6.0 15.0 0.00 0.00 0.00 72 1015.2
20260905232530 80 101 6.0 15.0 0.00 0.00 0.00 72 1015.0
20260905232030 80 109 5.0 15.0 0.00 0.00 0.00 72 1015.0
20260905231550 80 85 8.0 15.0 0.00 0.00 0.00 71 1015.0
20260905231031 80 110 8.0 15.0 0.00 0.00 0.00 71 1014.9
20260905230530 80 123 6.0 15.0 0.00 0.00 0.00 71 1014.7
20260905230047 80 109 10.0 15.0 0.00 0.00 0.00 70 1014.6
20260905225535 80 100 7.0 13.0 0.00 0.00 0.00 70 1014.6
20260905225029 80 133 9.0 14.0 0.00 0.00 0.00 70 1014.6
20260905224552 80 105 6.0 14.0 0.00 0.00 0.00 70 1014.4
20260905224028 81 102 8.0 14.0 0.00 0.00 0.00 70 1014.3
20260905223529 81 88 8.0 14.0 0.00 0.00 0.00 70 1014.4
20260905223055 81 129 6.0 14.0 0.00 0.00 0.00 69 1014.3
20260905222530 81 109 4.0 10.0 0.00 0.00 0.00 70 1014.3
20260905222029 80 84 4.0 12.0 0.00 0.00 0.00 70 1014.5
20260905221552 80 81 5.0 12.0 0.00 0.00 0.00 70 1014.5
20260905221028 80 92 4.0 12.0 0.00 0.00 0.00 70 1014.6
20260905220532 80 118 7.0 12.0 0.00 0.00 0.00 70 1014.7
20260905220058 80 115 5.0 12.0 0.00 0.00 0.00 70 1014.9
20260905215529 80 115 4.0 12.0 0.00 0.00 0.00 70 1014.9
20260905215029 80 103 7.0 12.0 0.00 0.00 0.00 69 1014.8
20260905214553 80 102 5.0 11.0 0.00 0.00 0.00 70 1014.8
20260905214029 80 117 4.0 11.0 0.00 0.00 0.00 69 1014.9
20260905213529 80 101 4.0 11.0 0.00 0.00 0.00 69 1014.9
20260905213050 80 48 5.0 14.0 0.00 0.00 0.00 69 1014.6
20260905212533 80 73 5.0 14.0 0.00 0.00 0.00 71 1014.5
20260905212031 80 41 6.0 14.0 0.00 0.00 0.00 69 1014.5
20260905211553 80 36 5.0 15.0 0.00 0.00 0.00 70 1014.7
20260905211029 80 109 7.0 15.0 0.00 0.00 0.00 70 1014.8
20260905210529 81 134 9.0 17.0 0.00 0.00 0.00 69 1014.8
20260905205529 81 53 7.0 15.0 0.00 0.00 0.00 70 1014.8
20260905205030 81 68 6.0 13.0 0.00 0.00 0.00 69 1015.0
20260905204547 82 83 6.0 15.0 0.00 0.00 0.00 71 1015.2
20260905204031 82 85 6.0 15.0 0.00 0.00 0.00 71 1015.4
20260905203530 82 88 6.0 15.0 0.00 0.00 0.00 69 1015.3
20260905203042 82 94 5.0 13.0 0.00 0.00 0.00 71 1015.3
20260905202532 81 68 5.0 13.0 0.00 0.00 0.00 72 1015.3
20260905202031 82 67 5.0 13.0 0.00 0.00 0.00 71 1015.5
20260905201552 82 99 4.0 11.0 0.00 0.00 0.00 71 1015.7
20260905201029 82 131 3.0 11.0 0.00 0.00 0.00 71 1015.9
20260905200538 82 114 2.0 11.0 0.00 0.00 0.00 71 1015.8
20260905200112 82 352 3.0 11.0 0.00 0.00 0.00 69 1015.9
20260905195531 82 86 7.0 11.0 0.00 0.00 0.00 70 1015.9
20260905195035 82 92 4.0 9.0 0.00 0.00 0.00 72 1016.0
20260905194545 81 72 2.0 9.0 0.00 0.00 0.00 74 1016.1
20260905194033 81 84 3.0 9.0 0.00 0.00 0.00 73 1016.2
20260905193532 80 98 2.0 7.0 0.00 0.00 0.00 73 1016.3
20260905193050 80 133 1.0 7.0 0.00 0.00 0.00 73 1016.3
20260905192533 80 98 2.0 5.0 0.00 0.00 0.00 73 1016.3
20260905192033 80 53 1.0 5.0 0.00 0.00 0.00 73 1016.3
20260905191549 80 303 1.0 3.0 0.00 0.00 0.00 73 1016.5
20260905191034 80 0 0.0 4.0 0.00 0.00 0.00 74 1016.4
20260905190532 80 211 1.0 4.0 0.00 0.00 0.00 74 1016.5
20260905190048 80 0 1.0 4.0 0.00 0.00 0.00 74 1016.5
20260905185534 80 321 2.0 7.0 0.00 0.00 0.00 74 1016.5
20260905185031 80 120 3.0 7.0 0.00 0.00 0.00 74 1016.5
20260905184554 81 76 2.0 7.0 0.00 0.00 0.00 74 1016.4
20260905184037 81 109 3.0 7.0 0.00 0.00 0.00 74 1016.3
20260905183533 80 87 1.0 7.0 0.00 0.00 0.00 75 1016.5
20260905183052 79 131 1.0 7.0 0.00 0.00 0.00 77 1016.5
20260905182532 79 81 1.0 8.0 0.00 0.00 0.00 77 1016.6
20260905182035 79 90 4.0 11.0 0.00 0.00 0.00 76 1016.7
20260905181555 79 115 6.0 11.0 0.00 0.00 0.00 76 1016.7
20260905181032 78 196 3.0 10.0 0.00 0.00 0.00 78 1016.7
20260905180532 78 80 4.0 10.0 0.00 0.00 0.00 78 1016.7
20260905180049 79 90 4.0 10.0 0.00 0.00 0.00 78 1016.7
20260905175536 78 121 4.0 10.0 0.00 0.00 0.00 79 1016.7
20260905175033 78 110 3.0 10.0 0.00 0.00 0.00 79 1016.9
20260905174544 77 129 4.0 8.0 0.00 0.00 0.00 80 1017.1
20260905174037 78 173 4.0 8.0 0.00 0.00 0.00 79 1017.3
20260905173531 77 156 1.0 8.0 0.00 0.00 0.00 79 1017.3
20260905173054 77 153 5.0 8.0 0.00 0.00 0.00 80 1017.4
20260905172532 77 191 4.0 8.0 0.00 0.00 0.00 80 1017.5
20260905172033 76 160 2.0 8.0 0.00 0.00 0.00 82 1017.4
20260905171550 76 131 2.0 8.0 0.00 0.00 0.00 82 1017.5
20260905171033 76 103 1.0 6.0 0.00 0.00 0.00 83 1017.4
20260905170533 75 117 2.0 8.0 0.00 0.00 0.00 84 1017.5
20260905170047 74 0 0.0 8.0 0.00 0.00 0.00 85 1017.4
20260905165530 74 96 2.0 8.0 0.00 0.00 0.00 84 1017.5
20260905165032 74 58 1.0 6.0 0.00 0.00 0.00 85 1017.5
20260905164545 74 0 2.0 7.0 0.00 0.00 0.00 84 1017.7
20260905164031 74 118 2.0 8.0 0.00 0.00 0.00 86 1017.5
20260905163531 73 98 2.0 8.0 0.00 0.00 0.00 87 1017.5
20260905163050 73 86 3.0 8.0 0.00 0.00 0.00 86 1017.5
20260905162531 73 64 2.0 8.0 0.00 0.00 0.00 87 1017.6
20260905162030 73 98 3.0 8.0 0.00 0.00 0.00 88 1017.5
20260905161548 73 108 3.0 8.0 0.00 0.00 0.00 88 1017.4
20260905161035 72 107 3.0 8.0 0.00 0.00 0.00 89 1017.3
20260905160533 72 107 4.0 8.0 0.00 0.00 0.00 89 1017.2
20260905160055 72 123 3.0 7.0 0.00 0.00 0.00 89 1017.3
20260905155529 72 117 3.0 7.0 0.00 0.00 0.00 90 1017.4
20260905155030 72 118 2.0 7.0 0.00 0.00 0.00 90 1017.4
20260905154559 72 98 3.0 7.0 0.00 0.00 0.00 90 1017.4